Date,TemperatureHighF,TemperatureAvgF,TemperatureLowF,DewpointHighF,DewpointAvgF,DewpointLowF,HumidityHigh,HumidityAvg,HumidityLow,PressureMaxIn,PressureMinIn,WindSpeedMaxMPH,WindSpeedAvgMPH,GustSpeedMaxMPH,PrecipitationSumIn
2013-2-1,-2,-10,-19,-6,-15,-23,87,80,73,0.00,40.00,11,5,16,0.00
2013-2-2,7,-2,-13,3,-6,-16,89,86,81,0.00,40.00,14,6,19,0.00
2013-2-3,9,3,-2,1,-3,-8,90,75,56,0.00,40.00,10,-18,13,0.00
2013-2-4,27,8,0,19,4,-6,96,83,74,0.00,40.00,20,10,30,0.00
2013-2-5,27,7,0,26,4,-2,95,87,80,0.00,40.00,21,10,29,0.00
2013-2-6,19,15,8,18,13,5,97,92,88,0.00,40.00,12,9,19,0.00
2013-2-7,12,5,-5,10,3,-6,96,93,87,0.00,40.00,12,5,18,0.00
2013-2-8,25,18,10,20,16,9,99,92,76,0.00,40.00,18,-12,30,0.00
2013-2-9,30,26,22,26,24,20,99,93,83,0.00,40.00,14,5,20,0.00
2013-2-10,29,27,22,29,27,22,99,98,91,0.00,40.00,26,13,39,0.00
2013-2-11,24,18,13,22,15,11,99,89,72,0.00,40.00,25,15,37,0.00
2013-2-12,32,23,12,26,19,10,94,85,67,0.00,40.00,14,10,22,0.00
2013-2-13,27,22,15,24,20,15,99,94,78,0.00,40.00,14,6,17,0.00
2013-2-14,22,12,6,21,9,3,98,85,75,0.00,40.00,17,11,24,0.00
2013-2-15,18,4,-8,10,1,-10,95,88,62,0.00,40.00,9,4,11,0.00
2013-2-16,17,8,-5,15,6,-7,95,91,81,0.00,40.00,16,9,26,0.00
2013-2-17,29,23,17,29,22,15,99,95,90,0.00,40.00,23,16,35,0.00
2013-2-18,29,9,-3,29,8,-7,99,96,93,0.00,40.00,34,26,54,0.00
2013-2-19,-5,-9,-13,-7,-12,-16,92,89,88,0.00,40.00,26,17,39,0.00
2013-2-20,5,-6,-18,3,-9,-20,92,90,88,0.00,40.00,10,4,16,0.00
2013-2-21,20,7,-3,20,5,-5,96,94,92,0.00,40.00,11,5,17,0.00
2013-2-22,18,11,2,18,10,1,99,95,92,0.00,40.00,9,4,12,0.00
2013-2-23,21,16,10,21,16,9,99,99,98,0.00,40.00,7,4,12,0.00
2013-2-24,24,14,5,24,14,4,99,97,94,0.00,40.00,11,6,15,0.00
2013-2-25,29,19,8,26,18,8,99,95,90,0.00,40.00,16,9,27,0.00
2013-2-26,25,18,12,25,18,12,99,99,98,0.00,40.00,12,6,19,0.00
2013-2-27,27,18,9,26,18,9,99,97,93,0.00,40.00,22,11,30,0.00
2013-2-28,26,20,12,20,18,10,97,91,73,0.00,40.00,14,10,19,0.00